User: anonymous   Login
Location: Chagrin Falls Park
(41.4139°N, 81.3865°W)
Time: 09:38:43
(UTC+00:00)
Language:

STARLINK-2688 - Orbit

View from above orbital plane
View from above orbital plane
View from above satellite
View from above satellite

Ground track
Ground track

The orbit data is extracted from the following two-line orbital elements,

1 48660C 21044Y   21294.10643898  .00003105  00000-0  20800-3 0  2942
2 48660  53.0537 106.9078 0001656  78.6562 310.8667 15.06399338    11
Epoch (UTC): 21 October 2021 02:33:16
Eccentricity: 0.0001656
inclination: 53.0537°
perigee height: 546 km
apogee height: 548 km
right ascension of ascending node: 106.9078°
argument of perigee: 78.6562°
revolutions per day: 15.06399338
mean anomaly at epoch: 310.8667°
orbit number at epoch: 1

The dashed part of the orbit path shows where the satellite is in the earth's shadow,  

DLR